Date String (YYYY-MM-DD hh:mm:ss) UTC,Instrument flags,absolute air pressure of the measurement (hPa),sample flow rate (lpm),inlet stack bypass flow (lpm),air temperature of the measurement (°C),ambient temperature measured by the external sensor (°C),aerosol sample conditioner tube jacket temperature (°C),OPC LED temperature (°C),internal box temperature (°C),relative humidity of the measurement (%),span deviation,mass concentration of particles derived from Lorenz-Mie calculation of OPC scattering (μg/m³),mass concentration of particles derived from Lorenz-Mie calculation of OPC scattering (μg/m³),mass concentration of particles derived from Lorenz-Mie calculation of OPC scattering (μg/m³)
DateTimeUTC,F1_M11,P_M11,Q1_M11,Q2_M11,T1_M11,T2_M11,T3_M11,T4_M11,T5_M11,U1_M11,ZSPAN_M11,X0_M11,X2_M11,X1_M11
2024-01-20 03:00:00,SystemResetWarning,0832.9,5.00,000.00,019.5,018.6,000.0,027.9,020.8,12.7,0002.0,0014.09,0007.26,0006.51
2024-01-20 03:01:00,SystemResetWarning,0832.9,5.01,000.00,019.5,018.6,000.0,027.9,020.8,12.7,0001.3,0014.23,0007.32,0006.54
2024-01-20 03:02:00,SystemResetWarning,0833.0,5.00,000.00,019.5,018.5,000.0,027.9,020.7,12.7,0000.0,0014.88,0007.37,0006.56
2024-01-20 03:03:00,SystemResetWarning,0832.9,5.00,000.00,019.5,018.5,000.0,027.9,020.7,12.7,0000.0,0014.91,0007.40,0006.58
2024-01-20 03:04:00,SystemResetWarning,0833.0,5.00,000.00,019.5,018.5,000.0,027.9,020.7,12.8,0000.0,0014.25,0007.40,0006.57
2024-01-20 03:05:00,SystemResetWarning,0833.0,5.00,000.00,019.5,018.5,000.0,027.9,020.7,12.8,0000.4,0013.38,0007.35,0006.55
2024-01-20 03:06:00,SystemResetWarning,0833.4,5.00,000.00,019.5,018.5,000.0,027.9,020.7,12.8,0001.2,0013.28,0007.32,0006.53
2024-01-20 03:07:00,SystemResetWarning,0833.1,5.00,000.00,019.5,018.5,000.0,027.9,020.7,12.7,0000.4,0013.62,0007.35,0006.53
2024-01-20 03:08:00,SystemResetWarning,0833.4,4.99,000.00,019.5,018.5,000.0,027.9,020.7,12.7,0000.7,0013.59,0007.28,0006.50
2024-01-20 03:09:00,SystemResetWarning,0833.0,5.00,000.00,019.4,018.5,000.0,027.8,020.7,12.7,0001.0,0013.61,0007.24,0006.47
2024-01-20 03:10:00,SystemResetWarning,0833.0,5.00,000.00,019.4,018.5,000.0,027.8,020.7,12.7,0003.0,0013.37,0007.22,0006.42
2024-01-20 03:11:00,SystemResetWarning,0833.0,5.00,000.00,019.4,018.5,000.0,027.8,020.7,12.7,0003.7,0013.10,0007.15,0006.37
2024-01-20 03:12:00,SystemResetWarning,0832.9,5.00,000.00,019.4,018.5,000.0,027.8,020.7,12.7,0003.8,0012.84,0007.09,0006.34
2024-01-20 03:13:00,SystemResetWarning,0833.0,5.00,000.00,019.4,018.5,000.0,027.8,020.7,12.7,0003.6,0012.66,0007.05,0006.33
2024-01-20 03:14:00,SystemResetWarning,0833.0,4.99,000.00,019.4,018.5,000.0,027.8,020.7,12.6,0003.5,0013.27,0007.01,0006.31
2024-01-20 03:15:00,SystemResetWarning,0833.1,5.00,000.00,019.4,018.5,000.0,027.8,020.7,12.6,0003.7,0013.06,0006.98,0006.31
2024-01-20 03:16:00,SystemResetWarning,0833.4,5.00,000.00,019.4,018.4,000.0,027.8,020.7,12.6,0003.7,0013.02,0007.00,0006.35
2024-01-20 03:17:00,SystemResetWarning,0833.2,5.01,000.00,019.4,018.5,000.0,027.8,020.7,12.6,0003.7,0013.01,0006.99,0006.36
2024-01-20 03:18:00,SystemResetWarning,0833.1,5.00,000.00,019.4,018.4,000.0,027.8,020.7,12.6,0002.4,0014.33,0006.99,0006.37
2024-01-20 03:19:00,SystemResetWarning,0832.9,5.00,000.00,019.4,018.4,000.0,027.8,020.6,12.5,0000.0,0014.52,0007.02,0006.38
2024-01-20 03:20:00,SystemResetWarning,0833.4,5.00,000.00,019.3,018.4,000.0,027.8,020.6,12.5,0000.0,0014.45,0007.04,0006.39
2024-01-20 03:21:00,SystemResetWarning,0833.2,5.01,000.00,019.3,018.4,000.0,027.8,020.6,12.5,0001.5,0014.00,0007.05,0006.43
2024-01-20 03:22:00,SystemResetWarning,0833.0,5.00,000.00,019.3,018.4,000.0,027.8,020.6,12.5,0004.4,0013.83,0007.06,0006.45
2024-01-20 03:23:00,SystemResetWarning,0833.2,5.00,000.00,019.3,018.4,000.0,027.7,020.6,12.5,0004.6,0013.99,0007.10,0006.49
2024-01-20 03:24:00,SystemResetWarning,0833.0,5.00,000.00,019.3,018.4,000.0,027.7,020.6,12.5,0002.8,0014.28,0007.14,0006.52
2024-01-20 03:25:00,SystemResetWarning,0833.0,4.99,000.00,019.3,018.4,000.0,027.7,020.6,12.5,0004.5,0013.57,0007.23,0006.57
2024-01-20 03:26:00,SystemResetWarning,0833.0,4.99,000.00,019.3,018.4,000.0,027.7,020.6,12.6,0002.0,0013.95,0007.30,0006.60
2024-01-20 03:27:00,SystemResetWarning,0833.3,4.99,000.00,019.3,018.4,000.0,027.7,020.6,12.6,0003.9,0014.09,0007.32,0006.59
2024-01-20 03:28:00,SystemResetWarning,0833.3,5.00,000.00,019.3,018.4,000.0,027.7,020.5,12.6,0003.4,0014.03,0007.34,0006.61
2024-01-20 03:29:00,SystemResetWarning,0833.3,5.00,000.00,019.3,018.3,000.0,027.7,020.5,12.6,0003.3,0012.36,0007.33,0006.60
2024-01-20 03:30:00,SystemResetWarning,0832.9,5.01,000.00,019.3,018.3,000.0,027.7,020.5,12.6,0003.2,0012.05,0007.29,0006.58
2024-01-20 03:31:00,SystemResetWarning,0833.0,5.00,000.00,019.3,018.3,000.0,027.7,020.5,12.7,0003.0,0012.17,0007.28,0006.55
2024-01-20 03:32:00,SystemResetWarning,0833.1,4.99,000.00,019.3,018.3,000.0,027.7,020.5,12.7,0001.3,0012.94,0007.25,0006.50
2024-01-20 03:33:00,SystemResetWarning,0832.8,4.99,000.00,019.2,018.3,000.0,027.6,020.5,12.7,0000.0,0013.01,0007.20,0006.43
2024-01-20 03:34:00,SystemResetWarning,0832.9,5.00,000.00,019.2,018.2,000.0,027.6,020.5,12.8,0000.0,0012.92,0007.12,0006.34
2024-01-20 03:35:00,SystemResetWarning,0833.4,5.00,000.00,019.2,018.2,000.0,027.6,020.4,12.8,0000.0,0012.27,0007.02,0006.25
2024-01-20 03:36:00,SystemResetWarning,0833.3,5.00,000.00,019.2,018.2,000.0,027.6,020.4,12.8,0000.0,0013.40,0006.95,0006.15
2024-01-20 03:37:00,SystemResetWarning,0833.2,5.01,000.00,019.2,018.2,000.0,027.6,020.4,12.9,0000.0,0012.97,0006.84,0006.06
2024-01-20 03:38:00,SystemResetWarning,0833.4,5.00,000.00,019.2,018.2,000.0,027.6,020.4,12.9,0000.0,0012.62,0006.72,0005.97
2024-01-20 03:39:00,SystemResetWarning,0833.3,5.00,000.00,019.2,018.1,000.0,027.6,020.4,13.0,0000.0,0012.85,0006.64,0005.89
2024-01-20 03:40:00,SystemResetWarning,0833.3,5.00,000.00,019.2,018.1,000.0,027.6,020.4,13.0,0000.1,0012.81,0006.57,0005.82
2024-01-20 03:41:00,SystemResetWarning,0833.0,5.00,000.00,019.2,018.1,000.0,027.6,020.4,13.0,-000.2,0012.85,0006.50,0005.75
2024-01-20 03:42:00,SystemResetWarning,0833.0,5.00,000.00,019.1,018.1,000.0,027.6,020.4,13.1,0000.1,0013.36,0006.42,0005.69
2024-01-20 03:43:00,SystemResetWarning,0833.1,5.01,000.00,019.1,018.1,000.0,027.6,020.4,13.1,0001.1,0012.89,0006.34,0005.64
2024-01-20 03:44:00,SystemResetWarning,0832.9,5.00,000.00,019.1,018.1,000.0,027.5,020.4,13.1,0002.0,0012.82,0006.32,0005.63
2024-01-20 03:45:00,SystemResetWarning,0833.1,5.00,000.00,019.1,018.1,000.0,027.5,020.4,13.2,0002.4,0012.86,0006.31,0005.62
2024-01-20 03:46:00,SystemResetWarning,0833.3,5.00,000.00,019.1,018.1,000.0,027.5,020.3,13.2,0003.6,0013.04,0006.32,0005.62
2024-01-20 03:47:00,SystemResetWarning,0833.1,5.00,000.00,019.1,018.1,000.0,027.5,020.3,13.2,0003.4,0012.23,0006.31,0005.63
2024-01-20 03:48:00,SystemResetWarning,0832.9,5.00,000.00,019.1,018.1,000.0,027.5,020.4,13.2,0001.9,0012.78,0006.31,0005.63
2024-01-20 03:49:00,SystemResetWarning,0833.0,5.00,000.00,019.1,018.1,000.0,027.5,020.3,13.2,0000.0,0013.44,0006.31,0005.63
2024-01-20 03:50:00,SystemResetWarning,0832.9,5.00,000.00,019.1,018.1,000.0,027.5,020.3,13.2,0000.0,0013.58,0006.31,0005.62
2024-01-20 03:51:00,SystemResetWarning,0832.9,5.00,000.00,019.1,018.1,000.0,027.5,020.3,13.2,0000.0,0013.78,0006.33,0005.63
2024-01-20 03:52:00,SystemResetWarning,0833.0,5.00,000.00,019.1,018.1,000.0,027.5,020.3,13.2,0000.0,0013.82,0006.38,0005.68
2024-01-20 03:53:00,SystemResetWarning,0833.2,5.00,000.00,019.1,018.1,000.0,027.5,020.3,13.2,0000.0,0013.26,0006.44,0005.73
2024-01-20 03:54:00,SystemResetWarning,0833.4,4.99,000.00,019.1,018.1,000.0,027.5,020.3,13.2,0000.0,0013.01,0006.52,0005.77
2024-01-20 03:55:00,SystemResetWarning,0833.4,5.00,000.00,019.1,018.1,000.0,027.4,020.3,13.2,0000.0,0013.39,0006.61,0005.83
2024-01-20 03:56:00,SystemResetWarning,0832.9,5.00,000.00,019.1,018.1,000.0,027.4,020.3,13.2,0000.0,0014.02,0006.71,0005.92
2024-01-20 03:57:00,SystemResetWarning,0833.0,5.00,000.00,019.1,018.1,000.0,027.4,020.3,13.2,0000.0,0014.18,0006.81,0006.01
2024-01-20 03:58:00,SystemResetWarning,0832.9,5.00,000.00,019.0,018.1,000.0,027.4,020.3,13.2,0000.0,0013.75,0006.88,0006.09
2024-01-20 03:59:00,SystemResetWarning,0833.0,5.00,000.00,019.0,018.1,000.0,027.4,020.3,13.2,0000.0,0013.39,0006.98,0006.18
